�ϑ��N����,2023/9/27,,,
�ϑ���,����ēl,,,
�ϑ��n�_,A17,,,
���x�v�ԍ�,A027,,,
,,,,
����,�C��,����,����,���l
9:30:00,-999,-999,,
9:31:00,-999,-999,,
9:32:00,-999,-999,,
9:33:00,-999,-999,,
9:34:00,-999,-999,,
9:35:00,-999,-999,,
9:36:00,-999,-999,,
9:37:00,-999,-999,,
9:38:00,-999,-999,,
9:39:00,-999,-999,,
9:40:00,-999,-999,,
9:41:00,-999,-999,,
9:42:00,-999,-999,,
9:43:00,-999,-999,,
9:44:00,-999,-999,,
9:45:00,-999,-999,,
9:46:00,-999,-999,,
9:47:00,-999,-999,,
9:48:00,-999,-999,,
9:49:00,-999,-999,,
9:50:00,-999,-999,,
9:51:00,-999,-999,,
9:52:00,-999,-999,,
9:53:00,-999,-999,,
9:54:00,-999,-999,,
9:55:00,-999,-999,,
9:56:00,31,8,,���܂����@��
9:57:00,30.5,1,,
9:58:00,30.2,8,,�_
9:59:00,30,8,,
10:00:00,29.5,8,,
10:01:00,29.3,8,,��
10:02:00,29.5,8,,
10:03:00,29.7,8,,
10:04:00,30,8,,�_
10:05:00,30,8,,
10:06:00,30.1,1,,��
10:07:00,30.1,1,,
10:08:00,30.2,1,,��
10:09:00,30.6,7,,
10:10:00,30.8,8,,
10:11:00,30.9,8,,
10:12:00,31.4,8,,������ł������̂����ڂ���
10:13:00,31.1,8,,
10:14:00,32,8,,
10:15:00,32.1,8,,
10:16:00,32.6,8,,�����܂���
10:17:00,32.2,8,,
10:18:00,32,8,,
10:19:00,31.7,8,,
10:20:00,31.9,8,,
10:21:00,32.2,8,,
10:22:00,33,7,,
10:23:00,32.8,8,,
10:24:00,32,8,,
10:25:00,32,6,,
10:26:00,32.8,7,,���܂���
10:27:00,32.7,1,,
10:28:00,32.1,1,,
10:29:00,32,1,,
10:30:00,31.6,8,,
10:31:00,31.4,1,,
10:32:00,31.3,1,,
10:33:00,31.2,1,,
10:34:00,31,2,,
10:35:00,31.2,1,,���܂���
10:36:00,31.3,3,,
10:37:00,32,3,,
10:38:00,32,3,,
10:39:00,32.1,3,,
10:40:00,32,8,,
10:41:00,32,1,,
10:42:00,32.5,8,,
10:43:00,31.1,8,,��
10:44:00,30.5,8,,
10:45:00,30.3,8,,
10:46:00,30.5,8,,���܂���
10:47:00,31,1,,
10:48:00,31.6,8,,
10:49:00,31,8,,
10:50:00,30,1,,
10:51:00,30.6,8,,�_
10:52:00,30.8,1,,
10:53:00,31,8,,��
10:54:00,31.2,8,,
10:55:00,31.7,8,,���܂���
10:56:00,31.9,8,,
10:57:00,31.6,8,,
10:58:00,31.8,1,,
10:59:00,31.7,8,,
11:00:00,31.5,8,,
11:01:00,31.2,1,,
11:02:00,31.3,8,,
11:03:00,31.1,1,,
11:04:00,31,8,,
11:05:00,31.1,8,,���܂���
11:06:00,31.5,8,,
11:07:00,31.4,1,,
11:08:00,31.1,8,,
11:09:00,31,3,,
11:10:00,30.9,4,,
11:11:00,31,8,,
11:12:00,31,8,,
11:13:00,31,1,,
11:14:00,31,8,,
11:15:00,31.1,8,,���܂���
11:16:00,30.9,8,,
11:17:00,31.1,8,,
11:18:00,31,8,,
11:19:00,31.1,1,,���������Ȃ���
11:20:00,31.2,1,,
11:21:00,30.6,8,,
11:22:00,30.1,7,,
11:23:00,30.3,8,,
11:24:00,30.8,8,,�����o��
11:25:00,31.2,8,,���܂���
11:26:00,31.7,7,,
11:27:00,32,8,,
11:28:00,31.5,1,,
11:29:00,32,1,,
11:30:00,32.8,1,,
